Weather History for Mora, MN

Change the Weather History Date:

Sunday, November 17, 2013

  Actual Average Record
Temperature  
Mean Temperature 35 °F -  
Max Temperature 42 °F 38 °F 71 °F (2001)
Min Temperature 28 °F 20 °F -5 °F (1959)
Degree Days  
Heating Degree Days 30    
Moisture  
Dew Point 33 °F    
Average Humidity 86    
Maximum Humidity 100    
Minimum Humidity 70    
Precipitation  
Precipitation 0.00 in - - ()
Sea Level Pressure  
Sea Level Pressure 29.45 in    
Wind  
Wind Speed 9 mph (West)    
Max Wind Speed 22 mph    
Max Gust Speed 34 mph    
Visibility 8 miles    
Events Fog    
Averages and records for this station are not official NWS values.
T = Trace of Precipitation, MM = Missing Value Source: NWS Daily Summary

Daily Weather History Graph

Daily Weather History Graph

Search for Another Location

Airport:

Trip Planner

Search our weather history database for the weather conditions in past years. The results will help you decide how hot, cold, wet, or windy it might be!

Date:

Astronomy

Nov. 17, 2013 Rise Set
Actual Time 7:16 AM CST 4:39 PM CST
Civil Twilight 6:43 AM CST 5:11 PM CST
Nautical Twilight 6:07 AM CST 5:48 PM CST
Astronomical Twilight 5:32 AM CST 6:23 PM CST
Moon 4:56 PM CST (11/17) 7:10 AM CST (11/17)
Length of Visible Light 10h 28m
Length of Day
9h 23m
Full, 100% of the Moon is Illuminated
Nov 17
Full
Nov 25
Last Quarter
Dec 2
New
Dec 9
First Quarter
Dec 17
Full

Hourly Weather History & Observations

Time (CST) Temp. Windchill Dew Point Humidity Pressure Visibility Wind Dir Wind Speed Gust Speed Precip Events Conditions
12:14 AM 41.0 °F 38.0 °F 37.4 °F 87% 29.30 in 0.5 mi SSW 4.6 mph - N/A Fog Fog
12:34 AM 41.0 °F 37.1 °F 41.0 °F 100% 29.29 in 1.0 mi SW 5.8 mph - N/A   Overcast
12:54 AM 42.8 °F 38.6 °F 41.0 °F 93% 29.29 in 0.8 mi SW 6.9 mph - N/A   Overcast
1:14 AM 42.8 °F 38.6 °F 42.8 °F 100% 29.28 in 1.8 mi SW 6.9 mph - N/A   Overcast
1:34 AM 42.8 °F 38.0 °F 42.8 °F 100% 29.28 in 2.5 mi SW 8.1 mph - N/A   Overcast
1:53 AM 42.8 °F 38.0 °F 41.0 °F 93% 29.29 in 3.0 mi SSW 8.1 mph - N/A   Overcast
2:14 AM 41.0 °F 38.0 °F 39.2 °F 93% 29.28 in 4.0 mi SW 4.6 mph - N/A   Overcast
2:34 AM 41.0 °F 36.4 °F 39.2 °F 93% 29.28 in 3.0 mi SSW 6.9 mph - N/A   Overcast
2:54 AM 41.0 °F 36.4 °F 39.2 °F 93% 29.28 in 2.5 mi SW 6.9 mph - N/A   Overcast
3:14 AM 41.0 °F 38.0 °F 39.2 °F 93% 29.28 in 3.0 mi SW 4.6 mph - N/A   Overcast
3:33 AM 41.0 °F 37.1 °F 39.2 °F 93% 29.28 in 2.5 mi SW 5.8 mph - N/A   Overcast
3:54 AM 41.0 °F - 39.2 °F 93% 29.27 in 2.5 mi Calm Calm - N/A   Overcast
4:14 AM 41.0 °F 37.1 °F 39.2 °F 93% 29.29 in 2.0 mi SW 5.8 mph - N/A   Overcast
4:34 AM 41.0 °F 37.1 °F 39.2 °F 93% 29.30 in 1.2 mi SW 5.8 mph - N/A   Overcast
4:54 AM 39.2 °F 35.0 °F 37.4 °F 93% 29.30 in 0.8 mi SW 5.8 mph - N/A   Overcast
5:14 AM 39.2 °F 35.0 °F 37.4 °F 93% 29.30 in 0.8 mi SW 5.8 mph - N/A   Overcast
5:34 AM 39.2 °F 35.0 °F 37.4 °F 93% 29.30 in 1.0 mi SW 5.8 mph - N/A   Overcast
5:54 AM 39.2 °F 35.0 °F 39.2 °F 100% 29.30 in 1.8 mi SW 5.8 mph - N/A   Overcast
6:14 AM 39.2 °F 35.0 °F 37.4 °F 93% 29.31 in 2.5 mi WSW 5.8 mph - N/A   Overcast
6:34 AM 41.0 °F 38.0 °F 39.2 °F 93% 29.31 in 3.0 mi WSW 4.6 mph - N/A   Overcast
6:54 AM 41.0 °F 39.0 °F 39.2 °F 93% 29.31 in 4.0 mi West 3.5 mph - N/A   Overcast
7:14 AM 41.0 °F 35.8 °F 41.0 °F 100% 29.31 in 7.0 mi West 8.1 mph - N/A   Overcast
7:34 AM 41.0 °F 35.8 °F 39.2 °F 93% 29.30 in 10.0 mi West 8.1 mph - N/A   Overcast
7:54 AM 39.2 °F 34.2 °F 37.4 °F 93% 29.31 in 10.0 mi WNW 6.9 mph - N/A   Overcast
8:14 AM 39.2 °F 32.5 °F 37.4 °F 93% 29.31 in 10.0 mi WNW 10.4 mph - N/A   Overcast
8:34 AM 37.4 °F 30.3 °F 37.4 °F 100% 29.32 in 10.0 mi WNW 10.4 mph 18.4 mph N/A   Overcast
8:54 AM 37.4 °F 30.3 °F 37.4 °F 100% 29.33 in 10.0 mi WNW 10.4 mph - N/A   Overcast
9:14 AM 37.4 °F 31.4 °F 35.6 °F 93% 29.35 in 10.0 mi WNW 8.1 mph - N/A   Overcast
9:34 AM 37.4 °F 31.4 °F 35.6 °F 93% 29.35 in 10.0 mi WNW 8.1 mph - N/A   Overcast
9:54 AM 37.4 °F 30.8 °F 35.6 °F 93% 29.35 in 10.0 mi NW 9.2 mph 18.4 mph N/A   Overcast
10:14 AM 37.4 °F 29.3 °F 35.6 °F 93% 29.36 in 10.0 mi NW 12.7 mph - N/A   Overcast
10:34 AM 37.4 °F 31.4 °F 35.6 °F 93% 29.37 in 10.0 mi NW 8.1 mph - N/A   Overcast
10:54 AM 37.4 °F 30.3 °F 35.6 °F 93% 29.38 in 10.0 mi NW 10.4 mph 17.3 mph N/A   Overcast
11:14 AM 37.4 °F 29.8 °F 33.8 °F 87% 29.39 in 10.0 mi NW 11.5 mph 16.1 mph N/A   Overcast
11:34 AM 37.4 °F 28.5 °F 33.8 °F 87% 29.38 in 10.0 mi NW 15.0 mph 19.6 mph N/A   Overcast
11:54 AM 39.2 °F 32.5 °F 33.8 °F 81% 29.39 in 10.0 mi NW 10.4 mph 23.0 mph N/A   Overcast
12:14 PM 37.4 °F 28.9 °F 32.0 °F 81% 29.39 in 10.0 mi NW 13.8 mph 25.3 mph N/A   Overcast
12:34 PM 39.2 °F 30.5 °F 33.8 °F 81% 29.40 in 10.0 mi NW 16.1 mph 23.0 mph N/A   Overcast
12:54 PM 39.2 °F 32.5 °F 33.8 °F 81% 29.40 in 10.0 mi NW 10.4 mph 17.3 mph N/A   Overcast
1:14 PM 39.2 °F 30.8 °F 32.0 °F 75% 29.41 in 10.0 mi NW 15.0 mph 20.7 mph N/A   Overcast
1:34 PM 39.2 °F 29.8 °F 32.0 °F 75% 29.42 in 10.0 mi NW 18.4 mph 25.3 mph N/A   Overcast
1:54 PM 39.2 °F 31.6 °F 32.0 °F 75% 29.42 in 10.0 mi NW 12.7 mph - N/A   Overcast
2:14 PM 41.0 °F 33.1 °F 32.0 °F 70% 29.43 in 10.0 mi WNW 15.0 mph 21.9 mph N/A   Overcast
2:34 PM 39.2 °F 30.5 °F 32.0 °F 75% 29.44 in 10.0 mi NW 16.1 mph 20.7 mph N/A   Overcast
2:54 PM 41.0 °F 33.5 °F 32.0 °F 70% 29.45 in 10.0 mi WNW 13.8 mph 19.6 mph N/A   Overcast
3:14 PM 39.2 °F 29.8 °F 32.0 °F 75% 29.46 in 10.0 mi NW 18.4 mph 24.2 mph N/A   Overcast
3:34 PM 37.4 °F 29.8 °F 32.0 °F 81% 29.48 in 10.0 mi WNW 11.5 mph 25.3 mph N/A   Overcast
3:54 PM 37.4 °F 28.5 °F 32.0 °F 81% 29.49 in 10.0 mi WNW 15.0 mph 21.9 mph N/A   Overcast
4:14 PM 35.6 °F 25.2 °F 32.0 °F 87% 29.51 in 10.0 mi WNW 18.4 mph 25.3 mph N/A   Overcast
4:34 PM 35.6 °F 26.2 °F 30.2 °F 81% 29.53 in 10.0 mi WNW 15.0 mph 27.6 mph N/A   Overcast
4:54 PM 35.6 °F 26.2 °F 30.2 °F 81% 29.55 in 10.0 mi WNW 15.0 mph 23.0 mph N/A   Overcast
5:14 PM 35.6 °F 27.5 °F 30.2 °F 81% 29.56 in 10.0 mi WNW 11.5 mph 31.1 mph N/A   Overcast
5:34 PM 35.6 °F 25.9 °F 30.2 °F 81% 29.58 in 10.0 mi WNW 16.1 mph 21.9 mph N/A   Overcast
5:54 PM 33.8 °F 23.2 °F 28.4 °F 81% 29.59 in 10.0 mi West 17.3 mph 24.2 mph N/A   Overcast
6:14 PM 33.8 °F 23.5 °F 28.4 °F 81% 29.62 in 10.0 mi WNW 16.1 mph 24.2 mph N/A   Overcast
6:34 PM 32.0 °F 22.1 °F 28.4 °F 87% 29.63 in 10.0 mi WNW 13.8 mph 21.9 mph N/A   Overcast
6:54 PM 32.0 °F 21.6 °F 26.6 °F 80% 29.64 in 10.0 mi WNW 15.0 mph 34.5 mph N/A   Overcast
7:14 PM 32.0 °F 21.2 °F 26.6 °F 80% 29.65 in 10.0 mi WNW 16.1 mph 26.5 mph N/A   Overcast
7:34 PM 32.0 °F 20.8 °F 26.6 °F 80% 29.66 in 10.0 mi WNW 17.3 mph 26.5 mph N/A   Overcast
7:54 PM 32.0 °F 22.1 °F 26.6 °F 80% 29.68 in 10.0 mi WNW 13.8 mph 20.7 mph N/A   Overcast
8:14 PM 32.0 °F 22.1 °F 26.6 °F 80% 29.69 in 10.0 mi WNW 13.8 mph 25.3 mph N/A   Overcast
8:34 PM 32.0 °F 20.8 °F 26.6 °F 80% 29.69 in 10.0 mi WNW 17.3 mph 26.5 mph N/A   Overcast
8:54 PM 32.0 °F 22.5 °F 26.6 °F 80% 29.70 in 10.0 mi WNW 12.7 mph 24.2 mph N/A   Overcast
9:14 PM 32.0 °F 22.1 °F 24.8 °F 75% 29.70 in 10.0 mi WNW 13.8 mph 26.5 mph N/A   Overcast
9:34 PM 32.0 °F 21.6 °F 24.8 °F 75% 29.71 in 10.0 mi WNW 15.0 mph 23.0 mph N/A   Overcast
9:54 PM 32.0 °F 21.2 °F 24.8 °F 75% 29.72 in 10.0 mi WNW 16.1 mph 25.3 mph N/A   Overcast
10:14 PM 30.2 °F 18.5 °F 23.0 °F 75% 29.72 in 10.0 mi WNW 17.3 mph 21.9 mph N/A   Overcast
10:34 PM 30.2 °F 18.1 °F 23.0 °F 75% 29.74 in 10.0 mi WNW 18.4 mph 26.5 mph N/A   Overcast
10:54 PM 30.2 °F 18.9 °F 23.0 °F 75% 29.75 in 10.0 mi WNW 16.1 mph 26.5 mph N/A   Overcast
11:14 PM 28.4 °F 16.2 °F 23.0 °F 80% 29.76 in 10.0 mi WNW 17.3 mph 25.3 mph N/A   Overcast
11:34 PM 28.4 °F 14.7 °F 21.2 °F 74% 29.76 in 10.0 mi WNW 21.9 mph 29.9 mph N/A   Overcast
11:54 PM 28.4 °F 15.4 °F 21.2 °F 74% 29.77 in 10.0 mi NW 19.6 mph 28.8 mph N/A   Overcast